FW6797 Weather Reports


time (UTC)temp
F
wind
direction
speed
knots
gust
knots
rain 1hr
in
rain 24hr
in
rain mn
in
humidity
%
barometer
mb
20260504001512 54 189 0.9 1.7 0.00 0.00 0.00 50 1012.0
20260504001008 54 185 0.9 1.7 0.00 0.00 0.00 50 1012.1
20260504000511 55 184 0.9 2.6 0.00 0.00 0.00 50 1012.1
20260504000017 55 184 0.9 2.6 0.00 0.00 0.00 47 1012.0
20260503235507 55 194 0.9 2.6 0.00 0.00 0.00 49 1012.2
20260503235007 55 195 0.9 2.6 0.00 0.00 0.00 49 1012.2
20260503234526 55 200 0.9 2.6 0.00 0.00 0.00 48 1012.3
20260503234011 56 184 0.9 3.5 0.00 0.00 0.00 49 1012.3
20260503233509 56 192 1.7 3.5 0.00 0.00 0.00 48 1012.4
20260503233004 56 175 0.9 3.5 0.00 0.00 0.00 47 1012.3
20260503232503 56 196 1.7 4.3 0.00 0.00 0.00 47 1012.3
20260503232007 56 215 1.7 4.3 0.00 0.00 0.00 47 1012.4
20260503231511 56 189 2.6 4.3 0.00 0.00 0.00 45 1012.4
20260503231005 56 205 1.7 4.3 0.00 0.00 0.00 45 1012.5
20260503230507 57 176 1.7 4.3 0.00 0.00 0.00 45 1012.5
20260503230014 57 198 2.6 6.1 0.00 0.00 0.00 44 1012.5
20260503225511 57 169 2.6 6.1 0.00 0.00 0.00 44 1012.5
20260503225008 57 164 2.6 4.3 0.00 0.00 0.00 45 1012.5
20260503224519 57 192 2.6 4.3 0.00 0.00 0.00 44 1012.7
20260503224009 57 185 0.9 4.3 0.00 0.00 0.00 44 1012.6
20260503223511 58 212 1.7 4.3 0.00 0.00 0.00 43 1012.6
20260503223021 57 190 1.7 4.3 0.00 0.00 0.00 43 1012.7
20260503222509 57 187 1.7 6.1 0.00 0.00 0.00 45 1012.7
20260503222009 57 203 3.5 6.1 0.00 0.00 0.00 43 1012.8
20260503221506 57 178 1.7 4.3 0.00 0.00 0.00 46 1012.7
20260503221007 58 170 2.6 6.1 0.00 0.00 0.00 45 1012.8
20260503220506 58 194 3.5 6.1 0.00 0.00 0.00 43 1012.8
20260503220012 58 205 2.6 7.0 0.00 0.00 0.00 44 1012.8
20260503215507 58 195 2.6 6.1 0.00 0.00 0.00 41 1012.8
20260503215011 58 196 2.6 5.2 0.00 0.00 0.00 44 1012.8
20260503214516 58 290 0.0 6.1 0.00 0.00 0.00 46 1012.9
20260503214007 58 213 2.6 6.1 0.00 0.00 0.00 42 1012.8
20260503213506 58 196 2.6 6.1 0.00 0.00 0.00 44 1012.8
20260503213022 58 159 2.6 6.1 0.00 0.00 0.00 46 1012.8
20260503212508 59 169 1.7 5.2 0.00 0.00 0.00 43 1012.8
20260503212010 59 187 1.7 5.2 0.00 0.00 0.00 43 1012.8
20260503211532 59 131 2.6 5.2 0.00 0.00 0.00 41 1012.8
20260503211008 59 159 0.9 3.5 0.00 0.00 0.00 43 1012.9
20260503210506 59 259 0.9 3.5 0.00 0.00 0.00 43 1012.9
20260503210015 59 260 0.9 7.0 0.00 0.00 0.00 43 1012.9
20260503205503 59 305 0.9 7.0 0.00 0.00 0.00 42 1012.9
20260503205008 59 181 0.9 5.2 0.00 0.00 0.00 45 1012.9
20260503204518 59 150 0.0 5.2 0.00 0.00 0.00 45 1012.9
20260503204008 59 175 1.7 5.2 0.00 0.00 0.00 45 1012.8
20260503203507 59 184 2.6 5.2 0.00 0.00 0.00 41 1012.9
20260503203020 59 260 1.7 7.0 0.00 0.00 0.00 44 1012.9
20260503202507 59 217 3.5 7.0 0.00 0.00 0.00 39 1012.9
20260503202011 59 188 3.5 7.8 0.00 0.00 0.00 39 1013.1
20260503201523 59 277 0.0 7.8 0.00 0.00 0.00 44 1013.0
20260503201008 58 180 2.6 7.0 0.00 0.00 0.00 43 1013.1
20260503200510 58 236 2.6 7.0 0.00 0.00 0.00 39 1013.2
20260503200026 58 165 0.9 6.1 0.00 0.00 0.00 42 1013.3
20260503195510 59 172 3.5 6.1 0.00 0.00 0.00 40 1013.4
20260503195011 60 203 1.7 5.2 0.00 0.00 0.00 42 1013.4
20260503194513 59 202 1.7 8.7 0.00 0.00 0.00 42 1013.5
20260503194006 59 248 0.9 8.7 0.00 0.00 0.00 42 1013.7
20260503193506 59 236 1.7 4.3 0.00 0.00 0.00 1013.7
20260503193017 58 212 0.9 7.8 0.00 0.00 0.00 42 1013.9
20260503192508 59 171 2.6 7.8 0.00 0.00 0.00 42 1013.9
20260503192007 58 254 0.9 7.8 0.00 0.00 0.00 46 1014.1
20260503191521 58 198 2.6 7.0 0.00 0.00 0.00 44 1014.3
20260503191009 59 196 1.7 5.2 0.00 0.00 0.00 44 1014.3
20260503190508 58 176 1.7 4.3 0.00 0.00 0.00 46 1014.4
20260503190040 58 255 1.7 7.0 0.00 0.00 0.00 44 1014.5
20260503185507 58 252 2.6 7.0 0.00 0.00 0.00 43 1014.5
20260503185012 58 181 2.6 5.2 0.00 0.00 0.00 43 1014.5
20260503184526 58 181 2.6 5.2 0.00 0.00 0.00 43 1014.6
20260503184009 58 196 3.5 6.1 0.00 0.00 0.00 42 1014.6
20260503183510 58 174 3.5 7.0 0.00 0.00 0.00 42 1014.7
20260503183016 58 227 1.7 7.0 0.00 0.00 0.00 42 1014.7
20260503182509 59 181 2.6 6.1 0.00 0.00 0.00 41 1014.8
20260503182010 58 189 1.7 5.2 0.00 0.00 0.00 41 1014.9
20260503181521 59 225 1.7 5.2 0.00 0.00 0.00 43 1014.9
20260503181009 59 276 1.7 5.2 0.00 0.00 0.00 40 1014.9
20260503180509 58 294 0.9 4.3 0.00 0.00 0.00 45 1014.9
20260503180036 58 272 1.7 6.1 0.00 0.00 0.00 41 1015.0
20260503175508 59 190 2.6 6.1 0.00 0.00 0.00 42 1015.0
20260503175006 59 246 1.7 5.2 0.00 0.00 0.00 42 1015.0
20260503174524 59 244 1.7 5.2 0.00 0.00 0.00 40 1015.0
20260503174007 59 162 2.6 5.2 0.00 0.00 0.00 42 1015.0
20260503173508 59 182 1.7 4.3 0.00 0.00 0.00 44 1015.2
20260503173028 59 276 0.9 4.3 0.00 0.00 0.00 45 1015.2
20260503172514 59 242 0.9 5.2 0.00 0.00 0.00 48 1015.3
20260503172006 58 186 2.6 5.2 0.00 0.00 0.00 43 1015.3
20260503171531 58 132 0.9 6.1 0.00 0.00 0.00 48 1015.4
20260503171006 58 238 1.7 6.1 0.00 0.00 0.00 45 1015.4
20260503170509 58 192 1.7 4.3 0.00 0.00 0.00 44 1015.5
20260503151010 53 214 2.6 6.1 0.00 0.00 0.00 48 1016.4
20260503150507 52 211 2.6 5.2 0.00 0.00 0.00 51 1016.4
20260503131005 45 200 1.7 2.6 0.00 0.00 0.00 61 1017.0
20260503130507 44 173 0.9 2.6 0.00 0.00 0.00 61 1017.0
20260503110511 35 203 0.0 0.0 0.00 0.00 0.00 79 1016.5
20260503090510 35 203 0.0 0.0 0.00 0.00 0.00 82 1016.1
20260503081538 35 203 0.0 0.0 0.00 0.00 0.00 83 1016.3
20260503081007 35 203 0.0 0.0 0.00 0.00 0.00 84 1016.3
20260503080507 35 203 0.0 0.0 0.00 0.00 0.00 84 1016.3
20260503072508 35 203 0.0 0.0 0.00 0.00 0.00 85 1016.3
20260503072013 35 203 0.0 0.0 0.00 0.00 0.00 84 1016.3
20260503071526 35 203 0.0 0.0 0.00 0.00 0.00 85 1016.3
20260503071010 35 203 0.0 0.0 0.00 0.00 0.00 85 1016.3
20260503070511 35 203 0.0 0.0 0.00 0.00 0.00 85 1016.2
20260503055012 37 203 0.0 0.0 0.00 0.00 0.00 83 1016.5
20260503054535 38 203 0.0 0.0 0.00 0.00 0.00 82 1016.5
20260503054008 38 203 0.0 0.0 0.00 0.00 0.00 82 1016.5
20260503053508 38 203 0.0 0.0 0.00 0.00 0.00 81 1016.4
20260503052509 38 203 0.0 0.0 0.00 0.00 0.00 80 1016.4
20260503052012 38 203 0.0 0.0 0.00 0.00 0.00 80 1016.4
20260503051010 39 203 0.0 0.0 0.00 0.00 0.00 79 1016.4
20260503050505 39 203 0.0 0.0 0.00 0.00 0.00 79 1016.4
20260503050011 39 203 0.0 0.0 0.00 0.00 0.00 79 1016.4
20260503045506 39 203 0.0 0.0 0.00 0.00 0.00 79 1016.4
20260503045008 39 203 0.0 0.0 0.00 0.00 0.00 78 1016.4
20260503044511 39 203 0.0 0.0 0.00 0.00 0.00 79 1016.5
20260503044007 39 203 0.0 0.0 0.00 0.00 0.00 79 1016.5
20260503043507 39 203 0.0 0.0 0.00 0.00 0.00 78 1016.5
20260503042507 40 203 0.0 0.0 0.00 0.00 0.00 78 1016.5
20260503042010 39 203 0.0 0.0 0.00 0.00 0.00 78 1016.6
20260503040510 40 219 0.0 0.0 0.00 0.00 0.00 78 1016.6
20260503040008 40 219 0.0 0.0 0.00 0.00 0.00 77 1016.6
20260503035505 39 219 0.0 0.0 0.00 0.00 0.00 77 1016.7
20260503035003 40 219 0.0 1.7 0.00 0.00 0.00 78 1016.6
20260503034512 39 230 0.0 1.7 0.00 0.00 0.00 78 1016.6
20260503034004 40 294 0.0 0.0 0.00 0.00 0.00 78 1016.7
20260503033508 40 294 0.0 0.0 0.00 0.00 0.00 78 1016.7
20260503033025 40 294 0.0 0.0 0.00 0.00 0.00 78 1016.7
20260503032510 40 294 0.0 0.0 0.00 0.00 0.00 78 1016.7
20260503032009 40 294 0.0 0.0 0.00 0.00 0.00 78 1016.8
20260503031008 39 294 0.0 0.0 0.00 0.00 0.00 77 1016.9
20260503030507 39 294 0.0 0.0 0.00 0.00 0.00 78 1016.9
20260503030025 40 294 0.0 0.0 0.00 0.00 0.00 78 1016.9
20260503025008 39 294 0.0 0.0 0.00 0.00 0.00 77 1017.0
20260503024008 39 294 0.0 0.0 0.00 0.00 0.00 77 1017.1
20260503023503 40 294 0.0 0.0 0.00 0.00 0.00 79 1017.0
20260503022504 40 294 0.0 0.0 0.00 0.00 0.00 79 1017.1
20260503022006 40 294 0.0 0.0 0.00 0.00 0.00 79 1017.1
20260503021525 40 294 0.0 0.0 0.00 0.00 0.00 78 1017.2
20260503021010 40 294 0.0 0.0 0.00 0.00 0.00 79 1017.2
20260503020508 40 294 0.0 0.0 0.00 0.00 0.00 77 1017.1
20260503020024 40 294 0.0 0.0 0.00 0.00 0.00 76 1017.1
20260503015509 40 294 0.0 0.0 0.00 0.00 0.00 76 1017.1
20260503012504 40 294 0.0 0.0 0.00 0.00 0.00 77 1017.0
20260503012006 40 294 0.0 0.0 0.00 0.00 0.00 76 1017.0
20260503011006 40 294 0.0 0.0 0.00 0.00 0.00 74 1017.0
20260503010511 40 294 0.0 0.0 0.00 0.00 0.00 73 1017.0
20260503005511 40 294 0.0 0.0 0.00 0.00 0.00 72 1016.8
20260503005011 40 294 0.0 0.0 0.00 0.00 0.00 73 1016.9